Regional Weather Roundup
Issued by NWS

Home | Current Version | Previous Version | Graphics & Text | Print | Product List | Glossary On
Versions: 1 2 3 4 5 6 7 8 9 10 11 12 13 14 15 16 17 18 19 20 21 22 23 24 25 26 27 28 29 30 31 32 33 34 35 36 37 38 39 40 41 42 43 44 45 46 47 48 49 50
000
ASUS43 KLOT 230006
RWRIL

ILLINOIS REGIONAL WEATHER ROUNDUP
NATIONAL WEATHER SERVICE CHICAGO/ROMEOVILLE IL
700 PM CDT FRI AUG 22 2014

NOTE: "FAIR" INDICATES FEW OR NO CLOUDS BELOW 12,000 FEET WITH NO
SIGNIFICANT WEATHER AND/OR OBSTRUCTIONS TO VISIBILITY.

* THESE STATIONS ARE NOT UNDER NWS QUALITY CONTROL. THEY ALSO MAY NOT
  REPORT WEATHER SUCH AS PRECIPITATION OR FOG.

ILZ001-002-007-009-015-016-024-230100-
NORTHWEST ILLINOIS

CITY           SKY/WX    TMP DP  RH WIND       PRES   REMARKS
MOLINE         MOCLDY    84  75  74 S3        29.93R HX  92
6HR MIN TEMP:  79; 6HR MAX TEMP:  89;

STERLING*      MOCLDY    82  75  78 SE3       29.94S HX  89
SAVANNA*       CLOUDY    85  74  70 SE3       29.93S HX  93
$$

ILZ003-004-008-010-011-017-018-230100-
NORTH CENTRAL ILLINOIS

CITY           SKY/WX    TMP DP  RH WIND       PRES   REMARKS
ROCKFORD       MOCLDY    81  73  76 S6        29.95S HX  86
6HR MIN TEMP:  79; 6HR MAX TEMP:  85;

FREEPORT*      MOCLDY    80  76  88 S3        29.97S HX  86
ROCHELLE*      PTCLDY    80  73  81 SW3       29.96S HX  84
DE KALB*       PTCLDY    79  72  79 SW3       29.97S HX  81
PERU*          PTCLDY    83  75  78 S6        29.96S HX  90
$$

ILZ005-006-012>014-019>023-230100-
NORTHEAST ILLINOIS

CITY           SKY/WX    TMP DP  RH WIND       PRES   REMARKS
CHICAGO-OHARE  MOCLDY    82  72  71 W6        29.94R HX  87
6HR MIN TEMP:  82; 6HR MAX TEMP:  86;

CHICAGO-MIDWAY MOCLDY    83  74  74 SW10      29.94R HX  89
6HR MIN TEMP:  82; 6HR MAX TEMP:  87;

AURORA         PTCLDY    82  73  74 CALM      29.96R HX  87
6HR MIN TEMP:  80; 6HR MAX TEMP:  83;

LANSING*       PTCLDY    81  72  75 W7        29.95S HX  85
JOLIET*        PTCLDY    82  72  71 SW3       29.97R HX  86
WAUKEGAN       CLEAR     75  72  90 E6        29.95R FOG
6HR MIN TEMP:  75; 6HR MAX TEMP:  81;

DUPAGE AIRPORT CLEAR     81  73  76 SW6       29.95R HX  86
6HR MIN TEMP:  81; 6HR MAX TEMP:  86;

KANKAKEE*      CLEAR     80  75  84 SW3       29.97S HX  84
WHEELING       CLEAR     81  74  79 E3        29.96R HX  86
6HR MIN TEMP:  81; 6HR MAX TEMP:  88;

MORRIS*        PTCLDY    82  75  80 CALM      29.96R HX  88
ROMEOVILLE*    CLOUDY    81  73  78 CALM      29.96R HX  85
NORTHERLY ISL    N/A     76  72  87 CALM        N/A
$$

LMZ740>746-230100-
SOUTHERN LAKE MICHIGAN

STATION/POSITION SKY/WX   TEMP    WIND        PRES    VSBY  WAVE
                          AIR SEA DIR/SP/G                  HT/PER
                          (F)     (DEG/KT/KT) (MB)    (MI)  (FT/S)
SOUTHERN BUOY              72 71  130/  2/  4 1014.5R         0
WAUKEGAN HARBOR            75     100/  2/  3   N/A
HARRISON CRIB              76     110/  8/  9   N/A
BURNHAM HARBOR             76      CALM  /  4   N/A
CALUMET HARBOR             82     180/  5/  7 1012.8R
MICHIGAN CITY              78      20/  4/  5   N/A
MICHIGAN CITY 6N           76 72   70/  2/  2   N/A           0
ST. JOSEPH                 76 72  350/  2/  2   N/A           0
$$

ILZ025>027-034>036-040-047-049-050-058-095>099-230100-
WEST-CENTRAL ILLINOIS

CITY           SKY/WX    TMP DP  RH WIND       PRES   REMARKS
QUINCY         MOCLDY    86  78  77 CALM      29.92S HX  98
GALESBURG*     PTCLDY    88  77  70 CALM      29.94F HX 101
MACOMB*        MOCLDY    82  79  88 CALM      29.96S HX  92
JACKSONVILLE*  PTCLDY    87  78  74 CALM      29.94R HX 100
PITTSFIELD*    PTCLDY    86  77  74 CALM      29.93S HX  98
$$

ILZ028>032-037-038-041>044-048-051>054-059>061-230100-
CENTRAL ILLINOIS

CITY           SKY/WX    TMP DP  RH WIND       PRES   REMARKS
PONTIAC        CLEAR     81  77  89 CALM      29.96S HX  88
DECATUR        PTCLDY    85  76  74 S5        29.96S HX  94
PEORIA         MOCLDY    86  75  69 CALM      29.94S HX  95
6HR MIN TEMP:  78; 6HR MAX TEMP:  88;

LACON*         PTCLDY    83  75  78 CALM      29.94F HX  90
LINCOLN*       CLEAR     86  76  70 CALM      29.92S HX  96
SPRINGFIELD    MOCLDY    87  78  74 SW3       29.94S HX 100
6HR MIN TEMP:  82; 6HR MAX TEMP:  89;

TAYLORVILLE    PTCLDY    82  79  89 SE3       29.95R HX  93
$$

ILZ033-039-045-046-055>057-062-063-230100-
EAST-CENTRAL ILLINOIS

CITY           SKY/WX    TMP DP  RH WIND       PRES   REMARKS
CHAMPAIGN      PTCLDY    81  76  84 E3        29.97F HX  87
DANVILLE*      RAIN      79  75  89 CALM      29.95S HX  82
RANTOUL*       PTCLDY    83  73  71 CALM      29.98S HX  89
MATTOON        MOCLDY    82  77  84 S3        29.96S HX  90
PARIS*         MOCLDY    81  78  89 CALM      29.98S HX  90
$$

ILZ079-100>102-230100-
SOUTHWEST ILLINOIS

CITY           SKY/WX    TMP DP  RH WIND       PRES   REMARKS
ALTON          MOCLDY    86  81  84 SE5       29.93S HX 102
BELLEVILLE     MOCLDY    86  81  85 E1        29.91F HX 104
CAHOKIA*       MOCLDY    88  79  74 CALM      29.91F HX 103
SPARTA*        CLOUDY    87  78  74 S5        29.93F HX  99
$$

ILZ064>066-069>071-074>076-080>082-084>086-088>090-092>094-230100-
SOUTH-CENTRAL ILLINOIS

CITY           SKY/WX    TMP DP  RH WIND       PRES   REMARKS
CARBONDALE     MOCLDY    87  76  69 S7        29.93F HX  97
6HR MIN TEMP:  87; 6HR MAX TEMP:  91;

CAIRO*         PTCLDY    90  77  65 S6        29.94F HX 102
MARION         MOCLDY    88  79  74 S6        29.94F HX 102
MT. VERNON     CLOUDY    84  77  79 CALM      29.95S HX  94
CENTRALIA*     CLOUDY    85  77  78 CALM      29.95S HX  95
SALEM*         MOCLDY    86  82  88 CALM      29.95F HX 103
METROPOLIS*    MOCLDY    88  71  56 SW5       29.95S HX  93
$$

ILZ067-068-072-073-078-083-087-091-230100-
SOUTHEAST ILLINOIS

CITY           SKY/WX    TMP DP  RH WIND       PRES   REMARKS
LAWRENCEVILLE  MOCLDY    83  78  85 CALM      29.96S HX  93
FLORA*         MOCLDY    84  77  79 CALM      29.95F HX  93
FAIRFIELD*     MOCLDY    84  82  94 CALM      29.95S HX 101
HARRISBURG*    CLOUDY    85  80  83 CALM      29.96S HX 100
ROBINSON*      MOCLDY    83  80  90 CALM      29.96F HX  97
CARMI*         CLOUDY    84  82  94 CALM      29.94S HX 101
$$

ABBREVIATIONS USED IN REMARKS
   TC - TEMPERATURE IN CELSIUS
  WCI - WIND CHILL INDEX
   HX - HEAT INDEX
  VSB - VISIBILITY
$$



USA.gov is the U.S. government's official web portal to all federal, state and local government web resources and services.